Home > Time Zones > World Clock > Weather > Peru > Lima > Past weeks

Flag for Peru Weather past 2 weeks in Lima, Lima, Peru

Now
66 °F

Mostly cloudy.


Feels Like: 66 °F
Forecast: 65 / 72 °F
Wind: 10 mph from Southeast

Location: Lima-Callao / Aerop. Internacional Jorgechavez

Current Time: Jul 7, 2015 at 2:57:20 AM

Latest Report: Jul 7, 2015 at 2:00 AM


Visibility: N/A

Pressure: 29.95 "Hg

Humidity: 83%

Dew point: 61 °F

Location of LimaLocation

Historic Weather in Lima — Graph

°F

Lima temperature yesterday

Maximum temperature yesterday: 70 °F (at 1:00 PM)
Minimum temperature yesterday: 64 °F (at 3:00 AM)
Average temperature yesterday: 67 °F

Past Weeks' High & Low Weather Summary

 TemperatureHumidityPressure
High84 °F (Jul 4, 2:00 PM)94% (Jul 6, 3:00 AM)30.07 "Hg (Jul 6, 3:00 AM)
Low64 °F (Jul 6, 3:00 AM)48% (Jul 4, 2:00 PM)29.77 "Hg (Jul 4, 3:00 AM)
Average69 °F78%29.90 "Hg
* Reported Jun 22 4:00 AM — Jul 7 2:00 AM, Lima, Weather by CustomWeather, © 2015

Note: Actual official high and low records may vary slightly from our data, if they occured in-between our weather recording intervals... More about our weather records

Advertising

Lima weather history for previous 24 hours

 ConditionsComfort  
Time TempWeatherWind HumidityBarometerVisibility
2:00 AM
Tue, Jul 7
66 °FMostly cloudy.10 mph83%29.95 "HgN/A
1:00 AM66 °FOvercast.10 mph83%29.98 "HgN/A
12:00 AM66 °FOvercast.13 mph83%29.98 "HgN/A
11:00 PM
Mon, Jul 6
66 °FOvercast.15 mph83%29.98 "HgN/A
10:00 PM66 °FOvercast.15 mph83%29.98 "HgN/A
9:00 PM68 °FOvercast.13 mph78%29.98 "HgN/A
8:00 PM66 °FOvercast.17 mph83%29.98 "HgN/A
7:00 PM66 °FOvercast.14 mph83%29.98 "HgN/A
6:00 PM68 °FMostly cloudy.16 mph78%29.98 "HgN/A
5:00 PM68 °FMore clouds than sun.15 mph83%29.95 "HgN/A
4:00 PM68 °FOvercast.13 mph83%29.95 "HgN/A
3:00 PM70 °FOvercast.9 mph78%29.95 "HgN/A
2:00 PM70 °FOvercast.10 mph78%29.98 "HgN/A
1:00 PM70 °FMore clouds than sun.13 mph78%30.01 "HgN/A
12:00 PM68 °FLow clouds.13 mph83%30.04 "HgN/A
11:00 AM68 °FMore clouds than sun.13 mph88%30.04 "HgN/A
10:00 AM68 °FLow clouds.10 mph88%30.07 "Hg6 mi
9:00 AM66 °FLow clouds.10 mph94%30.07 "Hg5 mi
8:00 AM64 °FDrizzle. More clouds than sun.8 mph94%30.04 "Hg5 mi
7:00 AM64 °FDrizzle. Mostly cloudy.5 mph94%30.01 "Hg4 mi
6:00 AM64 °FDrizzle. Low clouds.6 mph94%29.98 "Hg4 mi
5:00 AM64 °FDrizzle. Fog.7 mph94%29.98 "Hg3 mi
4:00 AM64 °FDrizzle. Fog.6 mph94%29.98 "Hg3 mi
3:00 AM64 °FDrizzle. Mostly cloudy.6 mph94%29.98 "Hg5 mi
2:00 AM66 °FMostly cloudy.8 mph88%29.98 "HgN/A
Weather by CustomWeather, © 2015

See weather overviewHow to use our weather pages